[[{"header":{"parameterUnit":"m.s-1","parameterCategory":1,"la1":30.2991,"la2":30.254,"lo1":-89.0895,"lo2":-89.0444,"dy":0.0017,"dx":0.0017,"nx":28,"ny":28,"refTime":"2023-08-18T21:00:00:Z","depth":0,"parameterNumber":2,"parameterNumberName":"U-component_of_WINDS"},"data":[0,0,0,0,0,0,0,0,0,0,0,0,0,0,0,0,0,0,0,0,0,0,0,0,0,0,0,0,0,0,0,0,0,0,0,0,0,0,0,0,0,0,0,0,0,0,0,0,0,0,0,0,0,0,0,0,0,0,-1.2622,-1.2621,0,-1.251,-1.2509,-1.2508,-1.2429,-1.2428,-1.2427,-1.2427,-1.2312,-1.2309,-1.2307,0,0,0,0,0,0,0,0,0,0,0,0,0,-1.277,-1.2768,-1.2622,-1.2621,-1.2619,-1.251,-1.2509,-1.2507,-1.2429,-1.2428,-1.2427,-1.2427,-1.2313,-1.231,-1.2307,0,0,0,0,0,0,0,0,0,0,0,0,0,-1.2687,-1.2767,-1.2622,-1.2567,-1.2561,-1.2511,-1.2509,-1.2507,-1.2429,-1.2428,-1.2427,-1.2426,-1.2314,-1.231,-1.2306,-1.2302,0,0,-1.2295,-1.2293,0,0,0,0,0,0,0,0,-1.2692,-1.2681,-1.2576,-1.2571,-1.2564,-1.2482,-1.2519,-1.2438,-1.2429,-1.2479,-1.2427,-1.2426,-1.2369,-1.2361,-1.2342,-1.2297,-1.2292,-1.2295,-1.2292,-1.2291,-1.229,0,0,0,0,0,0,0,-1.2697,-1.2686,-1.2578,-1.2575,-1.2567,-1.2549,-1.2536,-1.2503,-1.2431,-1.2475,-1.2469,-1.2457,-1.2366,-1.2346,-1.2339,-1.229,-1.2295,-1.2291,-1.2289,-1.2288,-1.224,-1.2241,0,0,0,0,0,0,-1.2712,-1.2691,-1.2581,-1.2574,-1.2627,-1.2547,-1.2532,-1.251,-1.2431,-1.2418,-1.2457,-1.2453,-1.2353,-1.2343,-1.2334,-1.2327,-1.2291,-1.2287,-1.2285,-1.2239,-1.224,-1.2241,0,0,0,0,0,0,-1.2715,-1.2703,-1.2586,-1.2631,-1.2615,-1.2545,-1.252,-1.2508,-1.2488,-1.2418,-1.2405,-1.245,-1.2352,-1.234,-1.2312,-1.2321,-1.2286,-1.2282,-1.2238,-1.2239,-1.2241,-1.231,0,0,0,0,0,0,-1.272,-1.2704,-1.2701,-1.2632,-1.2613,-1.2564,-1.2521,-1.2506,-1.2482,-1.2475,-1.2408,-1.2396,-1.235,-1.2318,-1.2308,-1.2316,-1.2279,-1.2237,-1.2239,-1.224,-1.2306,-1.2314,-1.232,0,0,0,0,0,-1.2725,-1.2724,-1.2701,-1.2689,-1.2607,-1.2565,-1.2554,-1.2502,-1.2483,-1.248,-1.2436,-1.2398,-1.2322,-1.2316,-1.2304,-1.2311,-1.2236,-1.2238,-1.224,-1.2304,-1.2312,-1.232,0,0,0,0,0,0,-1.2795,-1.2714,-1.2688,-1.2664,-1.2622,-1.2552,-1.2546,-1.2512,-1.2474,-1.247,-1.2406,-1.2392,-1.2371,-1.2338,-1.2332,-1.2305,-1.2275,-1.2275,-1.2327,-1.2334,-1.2341,-1.2349,-1.2276,0,0,0,0,0,-1.2809,-1.2781,-1.2711,-1.2697,-1.2677,-1.2616,-1.2595,-1.2559,-1.2513,-1.2495,-1.2448,-1.2405,-1.2372,-1.2351,-1.2317,-1.2302,-1.2287,-1.2301,-1.2308,-1.2314,-1.2314,-1.2307,-1.2313,-1.2248,-1.2248,-1.2248,0,0,-1.2834,-1.2787,-1.2772,-1.271,-1.2673,-1.2647,-1.2601,-1.2574,-1.2555,-1.249,-1.2462,-1.2427,-1.2375,-1.2355,-1.2343,-1.2326,-1.2329,-1.2316,-1.2321,-1.2319,-1.231,-1.2316,-1.2322,-1.225,-1.225,-1.2249,0,0,-1.2868,-1.2829,-1.2814,-1.2779,-1.2725,-1.2684,-1.2681,-1.2617,-1.2591,-1.2562,-1.2514,-1.2491,-1.2434,-1.24,-1.2375,-1.2402,-1.2366,-1.2392,-1.2426,-1.242,-1.2425,-1.243,-1.2441,-1.2445,-1.2393,-1.2393,-1.2393,0,-1.2907,-1.2865,-1.2811,-1.2788,-1.2763,-1.2705,-1.2691,-1.266,-1.2597,-1.2582,-1.2564,-1.2494,-1.2455,-1.2427,-1.2434,-1.2416,-1.2412,-1.2399,-1.2429,-1.2433,-1.2436,-1.2446,-1.245,-1.2397,-1.2397,-1.2396,-1.2396,0,-1.2917,-1.2889,-1.2884,-1.2827,-1.2801,-1.2782,-1.2726,-1.2707,-1.2675,-1.2637,-1.261,-1.2561,-1.2517,-1.2508,-1.2475,-1.2477,-1.2468,-1.2441,-1.2409,-1.2447,-1.2455,-1.2458,-1.2402,-1.2401,-1.24,-1.2399,0,0,-1.299,-1.2905,-1.2904,-1.2879,-1.2816,-1.2794,-1.2775,-1.2733,-1.2719,-1.2678,-1.2662,-1.2617,-1.2593,-1.2565,-1.2528,-1.2522,-1.255,-1.2496,-1.2494,-1.2509,-1.2552,-1.2574,-1.2579,-1.2526,-1.2527,-1.2527,-1.2557,0,-1.3015,-1.2976,-1.2928,-1.2906,-1.2881,-1.2828,-1.2812,-1.2773,-1.2738,-1.2713,-1.2674,-1.2645,-1.2613,-1.2597,-1.2589,-1.2548,-1.2558,-1.2545,-1.2511,-1.2511,-1.2526,-1.2583,-1.2604,-1.2635,-1.256,-1.256,-1.256,0,-1.3039,-1.3003,-1.2979,-1.2922,-1.291,-1.2896,-1.2855,-1.2831,-1.2787,-1.2763,-1.2734,-1.2695,-1.2674,-1.2647,-1.2618,-1.261,-1.2594,-1.2573,-1.2573,-1.2567,-1.2538,-1.258,-1.2642,-1.2648,-1.2565,-1.2564,-1.2564,0,-1.3097,-1.3042,-1.3022,-1.3001,-1.2934,-1.2926,-1.2898,-1.2853,-1.2832,-1.2797,-1.2783,-1.2746,-1.2726,-1.2699,-1.2652,-1.2636,-1.263,-1.2597,-1.261,-1.2611,-1.261,-1.2611,-1.2672,-1.2599,-1.2599,-1.2599,-1.2599,0,-1.313,-1.3118,-1.3047,-1.3034,-1.302,-1.2966,-1.2954,-1.2921,-1.2883,-1.2864,-1.2816,-1.28,-1.2738,-1.2715,-1.2679,-1.2662,-1.2653,-1.2633,-1.2624,-1.2638,-1.2641,-1.2626,-1.2623,-1.26,-1.26,-1.2599,-1.2599,0,-1.3192,-1.3143,-1.3118,-1.3057,-1.3042,-1.3035,-1.2983,-1.297,-1.2934,-1.2911,-1.2903,-1.2846,-1.2817,-1.2768,-1.2724,-1.27,-1.2691,-1.2674,-1.2706,-1.27,-1.2716,-1.2716,-1.277,-1.2775,-1.2699,-1.27,-1.27,0,-1.3216,-1.3206,-1.3145,-1.313,-1.3104,-1.3079,-1.3058,-1.3006,-1.2986,-1.2938,-1.2931,-1.2899,-1.287,-1.2826,-1.2782,-1.2749,-1.2732,-1.2753,-1.2726,-1.2742,-1.2734,-1.2736,-1.2735,-1.2759,-1.2761,-1.2761,-1.2762,0,-1.3266,-1.3244,-1.3215,-1.318,-1.3157,-1.3126,-1.3093,-1.3083,-1.3024,-1.3005,-1.2975,-1.2953,-1.291,-1.288,-1.2841,-1.2813,-1.2779,-1.2771,-1.2773,-1.2787,-1.2807,-1.2798,-1.2724,-1.277,-1.2769,-1.2769,-1.2768,-1.2768,-1.3311,-1.33,-1.3257,-1.3228,-1.3198,-1.317,-1.3155,-1.3118,-1.3093,-1.3054,-1.3025,-1.2998,-1.2958,-1.2903,-1.2878,-1.2857,-1.2841,-1.2842,-1.2843,-1.2844,-1.2851,-1.281,-1.285,-1.2849,-1.2849,-1.2849,-1.2849,0,-1.336,-1.333,-1.3304,-1.326,-1.3238,-1.3208,-1.3171,-1.3155,-1.3132,-1.3098,-1.3071,-1.3039,-1.301,-1.2965,-1.2933,-1.2925,-1.2909,-1.2919,-1.2919,-1.2914,-1.2866,-1.2869,-1.2933,-1.2933,-1.2933,-1.2933,-1.2933,-1.2933,-1.3382,-1.3364,-1.3337,-1.3305,-1.3275,-1.3249,-1.3231,-1.3205,-1.3177,-1.3144,-1.312,-1.3091,-1.3053,-1.3018,-1.2991,-1.2979,-1.297,-1.2985,-1.2968,-1.2924,-1.2916,-1.2909,-1.2911,-1.2983,-1.2983,-1.3017,-1.3017,-1.3018]},{"header":{"parameterUnit":"m.s-1","parameterCategory":1,"la1":30.2991,"la2":30.254,"lo1":-89.0895,"lo2":-89.0444,"dy":0.0017,"dx":0.0017,"nx":28,"ny":28,"refTime":"2023-08-18T21:00:00:Z","depth":0,"parameterNumber":3,"parameterNumberName":"V-component_of_WINDS"},"data":[0,0,0,0,0,0,0,0,0,0,0,0,0,0,0,0,0,0,0,0,0,0,0,0,0,0,0,0,0,0,0,0,0,0,0,0,0,0,0,0,0,0,0,0,0,0,0,0,0,0,0,0,0,0,0,0,0,0,3.6734,3.6734,0,3.6724,3.6724,3.6724,3.6754,3.6755,3.6756,3.6757,3.6741,3.674,3.6738,0,0,0,0,0,0,0,0,0,0,0,0,0,3.6774,3.6773,3.6734,3.6734,3.6733,3.6724,3.6724,3.6724,3.6754,3.6755,3.6757,3.6758,3.6741,3.674,3.6738,0,0,0,0,0,0,0,0,0,0,0,0,0,3.676,3.6773,3.6734,3.6748,3.6749,3.6724,3.6724,3.6724,3.6754,3.6755,3.6757,3.6758,3.6742,3.674,3.6738,3.6697,0,0,3.6732,3.6731,0,0,0,0,0,0,0,0,3.676,3.6758,3.6746,3.6747,3.6748,3.6742,3.6732,3.6715,3.6754,3.6752,3.6757,3.6759,3.674,3.6738,3.6733,3.6697,3.6696,3.6732,3.6731,3.673,3.6729,0,0,0,0,0,0,0,3.6761,3.6759,3.673,3.6745,3.6747,3.6753,3.6753,3.6729,3.6738,3.6752,3.6754,3.6753,3.6741,3.6735,3.6733,3.6696,3.6732,3.673,3.6729,3.6728,3.6626,3.6625,0,0,0,0,0,0,3.6761,3.6759,3.673,3.6729,3.6758,3.6751,3.6751,3.6742,3.6738,3.6739,3.6752,3.6755,3.6737,3.6735,3.6732,3.6684,3.673,3.6728,3.6727,3.6628,3.6626,3.6624,0,0,0,0,0,0,3.6762,3.6758,3.673,3.6745,3.6742,3.6749,3.6739,3.6741,3.6736,3.6738,3.6739,3.6745,3.6738,3.6735,3.6706,3.6684,3.6727,3.6725,3.6629,3.6627,3.6625,3.6588,0,0,0,0,0,0,3.6763,3.6758,3.6744,3.6745,3.6741,3.6706,3.6738,3.674,3.6733,3.6736,3.6731,3.6732,3.6739,3.6709,3.6704,3.6682,3.6724,3.6631,3.6628,3.6626,3.6591,3.6584,3.6579,0,0,0,0,0,3.6764,3.6732,3.6743,3.6739,3.6723,3.6704,3.6702,3.6713,3.6731,3.6716,3.6718,3.6732,3.6688,3.6706,3.6701,3.6678,3.6633,3.6629,3.6626,3.6593,3.6586,3.6579,0,0,0,0,0,0,3.6726,3.6732,3.6744,3.6712,3.6708,3.671,3.669,3.6704,3.6693,3.6696,3.6709,3.6707,3.6676,3.6674,3.6694,3.6638,3.6663,3.6659,3.664,3.6633,3.6627,3.6627,3.6722,0,0,0,0,0,3.6714,3.67,3.6706,3.6677,3.6674,3.6683,3.6675,3.6684,3.6679,3.6677,3.6677,3.667,3.6655,3.6644,3.663,3.6592,3.659,3.6573,3.6567,3.6562,3.6557,3.6537,3.6529,3.6613,3.6613,3.6613,0,0,3.6689,3.6691,3.668,3.6669,3.6667,3.665,3.6681,3.6662,3.6649,3.6673,3.6647,3.6647,3.664,3.6606,3.6591,3.6604,3.6535,3.6558,3.6554,3.6552,3.6532,3.6524,3.6517,3.661,3.6611,3.6611,0,0,3.6634,3.6634,3.661,3.6608,3.6606,3.6612,3.6606,3.6607,3.6608,3.6582,3.66,3.6585,3.6559,3.6553,3.6547,3.6493,3.6505,3.6488,3.6455,3.6435,3.6429,3.6423,3.6402,3.6395,3.6484,3.6483,3.6483,0,3.6601,3.6579,3.6595,3.6576,3.657,3.6594,3.6569,3.6566,3.6558,3.6552,3.6567,3.6536,3.6533,3.6498,3.6485,3.648,3.6473,3.6487,3.6429,3.6423,3.6418,3.6398,3.6391,3.6481,3.6481,3.6482,3.6482,0,3.6539,3.6524,3.6504,3.6498,3.6491,3.6468,3.648,3.647,3.6481,3.6485,3.6458,3.6457,3.6443,3.6436,3.6445,3.6403,3.6411,3.6427,3.6452,3.6407,3.6389,3.6382,3.6478,3.6479,3.648,3.648,0,0,3.6456,3.6463,3.6455,3.6453,3.6453,3.644,3.6419,3.6408,3.6399,3.6394,3.6375,3.6354,3.6369,3.6362,3.6371,3.6354,3.631,3.6373,3.6373,3.636,3.6263,3.6249,3.624,3.632,3.6319,3.6318,3.6263,0,3.6401,3.6367,3.6382,3.6345,3.6331,3.6355,3.6337,3.6334,3.6338,3.6325,3.633,3.6314,3.6336,3.6332,3.6317,3.6319,3.6291,3.6324,3.6301,3.63,3.63,3.6231,3.6216,3.6164,3.6256,3.6255,3.6254,0,3.6332,3.6326,3.6288,3.6292,3.6287,3.627,3.6262,3.625,3.6247,3.6252,3.6246,3.6259,3.6238,3.6265,3.6234,3.6256,3.6249,3.6249,3.6247,3.6243,3.6273,3.6224,3.6148,3.6139,3.6243,3.6244,3.6245,0,3.6273,3.6256,3.6232,3.6229,3.6234,3.6221,3.6222,3.6222,3.6215,3.6207,3.6203,3.6192,3.6185,3.6177,3.6187,3.6206,3.6154,3.6182,3.6156,3.6155,3.6141,3.6142,3.6061,3.614,3.614,3.614,3.614,0,3.6209,3.6184,3.6206,3.619,3.6164,3.6182,3.6154,3.6158,3.6158,3.6142,3.6163,3.6148,3.6163,3.6149,3.6157,3.613,3.6128,3.6129,3.6131,3.6126,3.6126,3.6119,3.6122,3.6138,3.6139,3.6139,3.6139,0,3.6138,3.6151,3.6126,3.6134,3.6135,3.6115,3.6121,3.6106,3.6114,3.6094,3.609,3.6101,3.6086,3.6096,3.608,3.6085,3.605,3.6058,3.6051,3.6053,3.6025,3.6027,3.5936,3.5924,3.6012,3.6011,3.601,0,3.6094,3.6077,3.6083,3.6076,3.6076,3.6064,3.6057,3.6075,3.6067,3.6064,3.605,3.6037,3.6028,3.6002,3.6007,3.5996,3.6002,3.5971,3.6,3.5996,3.6,3.6,3.5998,3.5964,3.5963,3.5962,3.5962,0,3.6016,3.6024,3.6015,3.6009,3.6002,3.5997,3.5994,3.5986,3.6004,3.5994,3.598,3.5973,3.5959,3.5945,3.5936,3.5936,3.5951,3.5953,3.5946,3.594,3.5936,3.5936,3.6033,3.5954,3.5955,3.5956,3.5956,3.5956,3.5956,3.5942,3.5945,3.5934,3.5935,3.5932,3.5919,3.5926,3.5915,3.5906,3.5917,3.59,3.5899,3.5889,3.5887,3.5873,3.5885,3.5875,3.5872,3.5869,3.5864,3.5941,3.5871,3.5871,3.5872,3.5872,3.5872,0,3.5878,3.5882,3.5872,3.5868,3.586,3.5879,3.5877,3.5868,3.5854,3.5853,3.5844,3.5828,3.5816,3.5822,3.5811,3.5798,3.5805,3.5795,3.5794,3.5794,3.5854,3.5861,3.5789,3.5789,3.5789,3.579,3.579,3.579,3.5835,3.5812,3.5821,3.5798,3.5802,3.5787,3.5784,3.5781,3.5781,3.5763,3.5754,3.5759,3.576,3.575,3.5739,3.5741,3.5735,3.5722,3.5726,3.5782,3.579,3.5797,3.5803,3.5721,3.5721,3.5666,3.5666,3.5665]}]]